Time,TemperatureF,DewpointF,PressureIn,WindDirection,WindDirectionDegrees,WindSpeedMPH,WindSpeedGustMPH,Humidity,HourlyPrecipIn,Conditions,Clouds,dailyrainin,SoftwareType,DateUTC
2013-11-18 00:02:00,60.0,58.0,29.76,South,170,6.0,10.0,94,0.00,,,0.00,weatherlink.com 1.10,2013-11-18 05:02:00,
2013-11-18 00:17:00,60.5,59.0,29.75,SW,228,3.0,13.0,94,0.00,,,0.00,weatherlink.com 1.10,2013-11-18 05:17:00,
2013-11-18 00:32:00,60.8,59.0,29.75,SSW,200,6.0,10.0,94,0.00,,,0.00,weatherlink.com 1.10,2013-11-18 05:32:00,
2013-11-18 00:47:00,61.0,60.0,29.73,South,186,1.0,10.0,95,0.00,,,0.00,weatherlink.com 1.10,2013-11-18 05:47:00,
2013-11-18 01:02:00,61.4,60.0,29.72,SSW,210,4.0,11.0,95,0.00,,,0.00,weatherlink.com 1.10,2013-11-18 06:02:00,
2013-11-18 01:17:00,61.6,60.0,29.72,SSW,205,4.0,11.0,95,0.00,,,0.00,weatherlink.com 1.10,2013-11-18 06:17:00,
2013-11-18 01:32:00,62.1,61.0,29.71,SSE,148,5.0,14.0,95,0.00,,,0.00,weatherlink.com 1.10,2013-11-18 06:32:00,
2013-11-18 01:47:00,62.4,61.0,29.71,SW,228,4.0,12.0,95,0.00,,,0.00,weatherlink.com 1.10,2013-11-18 06:47:00,
2013-11-18 02:02:00,62.7,61.0,29.72,SSW,209,4.0,11.0,95,0.00,,,0.00,weatherlink.com 1.10,2013-11-18 07:02:00,
2013-11-18 02:17:00,62.7,61.0,29.77,NW,304,12.0,20.0,94,0.02,,,0.02,weatherlink.com 1.10,2013-11-18 07:17:00,
2013-11-18 02:32:00,56.4,54.0,29.77,West,279,12.0,24.0,91,0.19,,,0.19,weatherlink.com 1.10,2013-11-18 07:32:00,
2013-11-18 02:47:00,54.8,53.0,29.77,NW,318,4.0,14.0,92,0.21,,,0.21,weatherlink.com 1.10,2013-11-18 07:47:00,
2013-11-18 03:02:00,54.4,52.0,29.76,West,279,5.0,8.0,92,0.22,,,0.22,weatherlink.com 1.10,2013-11-18 08:02:00,
2013-11-18 03:17:00,54.6,52.0,29.75,West,280,3.0,6.0,92,0.19,,,0.22,weatherlink.com 1.10,2013-11-18 08:17:00,
2013-11-18 03:32:00,54.7,53.0,29.75,WSW,254,0.0,5.0,92,0.03,,,0.22,weatherlink.com 1.10,2013-11-18 08:32:00,
2013-11-18 03:47:00,54.9,52.0,29.74,West,260,1.0,5.0,91,0.01,,,0.22,weatherlink.com 1.10,2013-11-18 08:47:00,
2013-11-18 04:02:00,55.3,52.0,29.74,West,260,0.0,5.0,88,0.00,,,0.22,weatherlink.com 1.10,2013-11-18 09:02:00,
2013-11-18 04:17:00,55.6,51.0,29.74,West,262,2.0,5.0,85,0.00,,,0.22,weatherlink.com 1.10,2013-11-18 09:17:00,
2013-11-18 04:32:00,56.5,50.0,29.74,WSW,252,3.0,5.0,80,0.00,,,0.22,weatherlink.com 1.10,2013-11-18 09:32:00,
2013-11-18 04:47:00,56.7,51.0,29.75,WSW,257,3.0,3.0,80,0.00,,,0.22,weatherlink.com 1.10,2013-11-18 09:47:00,
2013-11-18 05:02:00,56.2,51.0,29.75,WSW,257,0.0,3.0,82,0.00,,,0.22,weatherlink.com 1.10,2013-11-18 10:02:00,
2013-11-18 05:17:00,56.2,51.0,29.75,WSW,248,0.0,4.0,82,0.00,,,0.22,weatherlink.com 1.10,2013-11-18 10:17:00,
2013-11-18 05:32:00,56.4,51.0,29.75,WSW,257,1.0,3.0,82,0.00,,,0.22,weatherlink.com 1.10,2013-11-18 10:32:00,
2013-11-18 05:47:00,56.4,51.0,29.76,WSW,258,0.0,4.0,81,0.00,,,0.22,weatherlink.com 1.10,2013-11-18 10:47:00,
2013-11-18 06:02:00,57.8,49.0,29.76,West,259,2.0,7.0,73,0.00,,,0.22,weatherlink.com 1.10,2013-11-18 11:02:00,
2013-11-18 06:17:00,58.0,49.0,29.77,West,259,2.0,4.0,72,0.00,,,0.22,weatherlink.com 1.10,2013-11-18 11:17:00,
2013-11-18 06:32:00,58.8,48.0,29.77,WSW,253,4.0,6.0,67,0.00,,,0.22,weatherlink.com 1.10,2013-11-18 11:32:00,
2013-11-18 06:47:00,60.2,45.0,29.77,NW,312,1.0,9.0,58,0.00,,,0.22,weatherlink.com 1.10,2013-11-18 11:47:00,
2013-11-18 07:02:00,60.8,44.0,29.78,NNW,328,4.0,9.0,54,0.00,,,0.22,weatherlink.com 1.10,2013-11-18 12:02:00,
2013-11-18 07:17:00,59.6,49.0,29.78,SW,234,2.0,4.0,69,0.00,,,0.22,weatherlink.com 1.10,2013-11-18 12:17:00,
2013-11-18 07:32:00,56.0,51.0,29.79,South,188,1.0,3.0,83,0.00,,,0.22,weatherlink.com 1.10,2013-11-18 12:32:00,
2013-11-18 07:47:00,55.8,50.0,29.79,South,188,0.0,2.0,80,0.00,,,0.22,weatherlink.com 1.10,2013-11-18 12:47:00,
2013-11-18 08:02:00,57.6,47.0,29.79,WSW,240,1.0,6.0,68,0.00,,,0.22,weatherlink.com 1.10,2013-11-18 13:02:00,
2013-11-18 08:17:00,59.9,43.0,29.79,West,260,3.0,8.0,55,0.00,,,0.22,weatherlink.com 1.10,2013-11-18 13:17:00,
2013-11-18 08:32:00,60.6,44.0,29.79,West,259,1.0,4.0,54,0.00,,,0.22,weatherlink.com 1.10,2013-11-18 13:32:00,
2013-11-18 08:48:00,61.6,43.0,29.80,West,265,3.0,11.0,50,0.00,,,0.22,weatherlink.com 1.10,2013-11-18 13:48:00,
2013-11-18 09:03:00,62.0,41.0,29.80,West,272,4.0,11.0,47,0.00,,,0.22,weatherlink.com 1.10,2013-11-18 14:03:00,
2013-11-18 09:18:00,62.5,40.0,29.80,WSW,242,11.0,13.0,43,0.00,,,0.22,weatherlink.com 1.10,2013-11-18 14:18:00,
2013-11-18 09:33:00,62.6,40.0,29.79,WSW,246,3.0,12.0,43,0.00,,,0.22,weatherlink.com 1.10,2013-11-18 14:33:00,
2013-11-18 09:48:00,63.1,40.0,29.80,SW,227,7.0,10.0,43,0.00,,,0.22,weatherlink.com 1.10,2013-11-18 14:48:00,
2013-11-18 10:03:00,63.5,39.0,29.80,WSW,251,13.0,13.0,40,0.00,,,0.22,weatherlink.com 1.10,2013-11-18 15:03:00,
2013-11-18 10:18:00,63.7,38.0,29.79,NNW,331,4.0,19.0,39,0.00,,,0.22,weatherlink.com 1.10,2013-11-18 15:18:00,
2013-11-18 10:33:00,64.3,37.0,29.80,WNW,300,9.0,14.0,37,0.00,,,0.22,weatherlink.com 1.10,2013-11-18 15:33:00,
2013-11-18 10:48:00,64.6,37.0,29.79,West,263,6.0,15.0,36,0.00,,,0.22,weatherlink.com 1.10,2013-11-18 15:48:00,
2013-11-18 11:03:00,65.0,35.0,29.78,West,262,7.0,13.0,33,0.00,,,0.22,weatherlink.com 1.10,2013-11-18 16:03:00,
2013-11-18 11:18:00,65.5,36.0,29.78,WSW,240,7.0,11.0,33,0.00,,,0.22,weatherlink.com 1.10,2013-11-18 16:18:00,
2013-11-18 11:33:00,65.8,36.0,29.77,WSW,244,5.0,12.0,33,0.00,,,0.22,weatherlink.com 1.10,2013-11-18 16:33:00,
2013-11-18 11:48:00,65.8,36.0,29.77,West,274,9.0,17.0,33,0.00,,,0.22,weatherlink.com 1.10,2013-11-18 16:48:00,
2013-11-18 12:03:00,65.7,34.0,29.76,WNW,288,5.0,19.0,31,0.00,,,0.22,weatherlink.com 1.10,2013-11-18 17:03:00,
2013-11-18 12:33:00,66.1,34.0,29.75,West,275,10.0,14.0,30,0.00,,,0.22,weatherlink.com 1.10,2013-11-18 17:33:00,
2013-11-18 12:48:00,66.1,34.0,29.76,NNW,332,11.0,15.0,31,0.00,,,0.22,weatherlink.com 1.10,2013-11-18 17:48:00,
2013-11-18 13:03:00,66.5,34.0,29.75,WSW,240,3.0,16.0,30,0.00,,,0.22,weatherlink.com 1.10,2013-11-18 18:03:00,
2013-11-18 13:33:00,66.3,31.0,29.75,WSW,253,6.0,14.0,27,0.00,,,0.22,weatherlink.com 1.10,2013-11-18 18:33:00,
2013-11-18 13:48:00,66.5,32.0,29.74,NW,323,3.0,16.0,28,0.00,,,0.22,weatherlink.com 1.10,2013-11-18 18:48:00,
2013-11-18 14:03:00,66.7,32.0,29.74,SW,234,3.0,12.0,27,0.00,,,0.22,weatherlink.com 1.10,2013-11-18 19:03:00,
2013-11-18 14:18:00,66.7,30.0,29.74,NW,308,6.0,15.0,25,0.00,,,0.22,weatherlink.com 1.10,2013-11-18 19:18:00,
2013-11-18 14:33:00,66.9,28.0,29.75,NW,313,3.0,12.0,23,0.00,,,0.22,weatherlink.com 1.10,2013-11-18 19:33:00,
2013-11-18 14:48:00,66.7,27.0,29.75,West,266,3.0,13.0,22,0.00,,,0.22,weatherlink.com 1.10,2013-11-18 19:48:00,
2013-11-18 15:03:00,66.5,26.0,29.75,WNW,290,3.0,12.0,22,0.00,,,0.22,weatherlink.com 1.10,2013-11-18 20:03:00,
2013-11-18 15:18:00,66.4,27.0,29.75,NNW,331,5.0,7.0,23,0.00,,,0.22,weatherlink.com 1.10,2013-11-18 20:18:00,
2013-11-18 15:33:00,66.2,26.0,29.75,WSW,254,9.0,12.0,22,0.00,,,0.22,weatherlink.com 1.10,2013-11-18 20:33:00,
2013-11-18 15:48:00,65.6,24.0,29.75,WSW,254,6.0,11.0,21,0.00,,,0.22,weatherlink.com 1.10,2013-11-18 20:48:00,
2013-11-18 16:03:00,65.1,25.0,29.75,West,281,3.0,14.0,22,0.00,,,0.22,weatherlink.com 1.10,2013-11-18 21:03:00,
2013-11-18 16:18:00,64.5,26.0,29.76,NW,313,8.0,11.0,23,0.00,,,0.22,weatherlink.com 1.10,2013-11-18 21:18:00,
2013-11-18 16:33:00,64.0,25.0,29.77,WNW,302,6.0,13.0,23,0.00,,,0.22,weatherlink.com 1.10,2013-11-18 21:33:00,
2013-11-18 16:48:00,63.1,26.0,29.77,WSW,252,5.0,10.0,24,0.00,,,0.22,weatherlink.com 1.10,2013-11-18 21:48:00,
2013-11-18 17:03:00,62.5,26.0,29.78,West,281,4.0,12.0,25,0.00,,,0.22,weatherlink.com 1.10,2013-11-18 22:03:00,
2013-11-18 17:18:00,62.0,27.0,29.79,West,273,4.0,13.0,26,0.00,,,0.22,weatherlink.com 1.10,2013-11-18 22:18:00,
2013-11-18 17:33:00,61.7,26.0,29.80,WNW,299,8.0,13.0,26,0.00,,,0.22,weatherlink.com 1.10,2013-11-18 22:33:00,
2013-11-18 17:48:00,61.1,28.0,29.81,NW,317,10.0,17.0,28,0.00,,,0.22,weatherlink.com 1.10,2013-11-18 22:48:00,
2013-11-18 18:03:00,60.6,28.0,29.82,NW,310,7.0,13.0,29,0.00,,,0.22,weatherlink.com 1.10,2013-11-18 23:03:00,
2013-11-18 18:18:00,60.0,28.0,29.83,NW,323,13.0,14.0,30,0.00,,,0.22,weatherlink.com 1.10,2013-11-18 23:18:00,
2013-11-18 18:33:00,59.5,29.0,29.83,West,281,7.0,12.0,32,0.00,,,0.22,weatherlink.com 1.10,2013-11-18 23:33:00,
2013-11-18 18:48:00,58.8,30.0,29.84,NW,304,2.0,18.0,33,0.00,,,0.22,weatherlink.com 1.10,2013-11-18 23:48:00,
2013-11-18 19:03:00,58.3,30.0,29.84,NW,317,3.0,12.0,34,0.00,,,0.22,weatherlink.com 1.10,2013-11-19 00:03:00,
2013-11-18 19:18:00,58.0,30.0,29.86,WNW,289,2.0,21.0,34,0.00,,,0.22,weatherlink.com 1.10,2013-11-19 00:18:00,
2013-11-18 19:33:00,57.6,29.0,29.86,NNW,331,3.0,13.0,33,0.00,,,0.22,weatherlink.com 1.10,2013-11-19 00:33:00,
2013-11-18 19:48:00,57.3,28.0,29.87,NW,304,7.0,18.0,33,0.00,,,0.22,weatherlink.com 1.10,2013-11-19 00:48:00,
2013-11-18 20:03:00,56.9,28.0,29.88,NNW,336,10.0,13.0,33,0.00,,,0.22,weatherlink.com 1.10,2013-11-19 01:03:00,
2013-11-18 20:18:00,56.6,27.0,29.88,WNW,302,7.0,13.0,32,0.00,,,0.22,weatherlink.com 1.10,2013-11-19 01:18:00,
2013-11-18 20:33:00,56.1,28.0,29.89,NNW,340,4.0,11.0,34,0.00,,,0.22,weatherlink.com 1.10,2013-11-19 01:33:00,
2013-11-18 20:48:00,55.4,27.0,29.89,NW,306,8.0,18.0,34,0.00,,,0.22,weatherlink.com 1.10,2013-11-19 01:48:00,
2013-11-18 21:03:00,55.0,27.0,29.90,WNW,301,5.0,14.0,34,0.00,,,0.22,weatherlink.com 1.10,2013-11-19 02:03:00,
2013-11-18 21:19:00,54.5,26.0,29.91,NW,323,13.0,16.0,34,0.00,,,0.22,weatherlink.com 1.10,2013-11-19 02:19:00,
2013-11-18 21:34:00,54.0,27.0,29.92,West,270,6.0,17.0,35,0.00,,,0.22,weatherlink.com 1.10,2013-11-19 02:34:00,
2013-11-18 21:49:00,53.6,27.0,29.92,WNW,292,2.0,17.0,36,0.00,,,0.22,weatherlink.com 1.10,2013-11-19 02:49:00,
2013-11-18 22:04:00,53.1,28.0,29.93,NNW,329,1.0,11.0,38,0.00,,,0.22,weatherlink.com 1.10,2013-11-19 03:04:00,
2013-11-18 22:19:00,52.5,28.0,29.93,NNW,337,7.0,16.0,39,0.00,,,0.22,weatherlink.com 1.10,2013-11-19 03:19:00,
2013-11-18 22:34:00,52.0,28.0,29.93,NW,304,3.0,11.0,40,0.00,,,0.22,weatherlink.com 1.10,2013-11-19 03:34:00,
2013-11-18 22:49:00,51.4,28.0,29.93,NW,315,6.0,12.0,41,0.00,,,0.22,weatherlink.com 1.10,2013-11-19 03:49:00,
2013-11-18 23:04:00,51.2,28.0,29.94,NE,36,5.0,15.0,41,0.00,,,0.22,weatherlink.com 1.10,2013-11-19 04:04:00,
2013-11-18 23:19:00,50.8,28.0,29.95,NW,311,3.0,10.0,42,0.00,,,0.22,weatherlink.com 1.10,2013-11-19 04:19:00,
2013-11-18 23:34:00,50.3,28.0,29.95,NNW,344,7.0,12.0,42,0.00,,,0.22,weatherlink.com 1.10,2013-11-19 04:34:00,
2013-11-18 23:49:00,49.9,27.0,29.95,NW,324,6.0,14.0,42,0.00,,,0.22,weatherlink.com 1.10,2013-11-19 04:49:00,